Regional Weather Roundup
Issued by NWS

Home | Current Version | Previous Version | Text Only | Print | Product List | Glossary On
Versions: 1 2 3 4 5 6 7 8 9 10 11 12 13 14 15 16 17 18 19 20 21 22 23 24 25 26 27 28 29 30 31 32 33 34 35 36 37 38 39 40 41 42 43 44 45 46 47 48 49 50
000
ASUS43 KLMK 202310
RWRKY
KENTUCKY REGIONAL WEATHER ROUNDUP
NATIONAL WEATHER SERVICE LOUISVILLE KY
700 PM EDT WED AUG 20 2014

NOTE "FAIR" INDICATES FEW OR NO CLOUDS BELOW 12,000 FEET
WITH NO SIGNIFICANT WEATHER AND/OR OBSTRUCTIONS TO VISIBILITY.

KYZ001>023-026-027-061>063-070>075-210000-
WESTERN AND SOUTH CENTRAL KENTUCKY

CITY           SKY/WX    TMP DP  RH WIND       PRES   REMARKS
PADUCAH        PTSUNNY   89  77  67 SW3       29.93F HX 101
HENDERSON      MOSUNNY   82  70  65 E6        29.94S
OWENSBORO      PTSUNNY   85  67  54 CALM      29.96F
HOPKINSVILLE   TSTM      76  69  80 NW13G23   30.00R
BOWLING GREEN  PTSUNNY   73  69  87 S9        30.03R
GLASGOW        CLOUDY    72  72 100 SW5       30.04F
$$

KYZ024-025-028>034-038-045-046-053-210000-
NORTH CENTRAL KENTUCKY

CITY           SKY/WX    TMP DP  RH WIND       PRES   REMARKS
LOUISVILLE/SDF PTSUNNY   84  68  58 SW3       29.96S
LOUISVILLE/LOU PTSUNNY   81  69  67 CALM      29.97S
FORT KNOX      CLOUDY    79  73  81 S3        29.97S
$$

KYZ035>037-039>044-047>052-055>060-089>105-210000-
NORTHEAST KENTUCKY

CITY           SKY/WX    TMP DP  RH WIND       PRES   REMARKS
LEXINGTON      CLOUDY    73  68  84 S8        29.99R
COVINGTON      PTSUNNY   76  68  76 CALM      29.96S
FRANKFORT      CLOUDY    74  68  81 E3        29.98R
$$

KYZ054-064>069-076>088-106>120-210000-
SOUTHEAST KENTUCKY

CITY           SKY/WX    TMP DP  RH WIND       PRES   REMARKS
JACKSON        TSTM      74  66  76 CALM      30.04R
LONDON         LGT RAIN  72  66  81 N8        30.06R
SOMERSET       CLOUDY    68  68 100 CALM      30.07R
MIDDLESBORO    RAIN      71  70  94 NW5       30.07R
MONTICELLO     CLOUDY    71  68  90 CALM      30.09S THUNDER
$$



USA.gov is the U.S. government's official web portal to all federal, state and local government web resources and services.